Regional Weather Roundup
Issued by NWS

Home | Current Version | Previous Version | Text Only | Print | Product List | Glossary Off
Versions: 1 2 3 4 5 6 7 8 9 10 11 12 13 14 15 16 17 18 19 20 21 22 23 24 25 26 27 28 29 30 31 32 33 34 35 36 37 38 39 40 41 42 43 44 45 46 47 48 49 50

000
ASUS43 KOAX 040610
RWRNE

WEATHER ROUNDUP FOR NEBRASKA
NATIONAL WEATHER SERVICE OMAHA NE
1200 AM CST SUN DEC 04 2016

NOTES: SATELLITE DATA IS BEING USED TO AUGMENT CLOUD COVER ABOVE
       12000 FEET.
       "FAIR" INDICATES FEW OR NO CLOUDS BELOW 12,000 FEET WITH NO
       SIGNIFICANT WEATHER AND/OR OBSTRUCTIONS TO VISIBILITY.

  * THESE STATIONS DO NOT REPORT WEATHER SUCH AS RAIN...SNOW OR FOG.

NEZ001>004-019>022-054>056-040700-
NEBRASKA PANHANDLE

CITY           SKY/WX    TMP DP  RH WIND       PRES   REMARKS
SCOTTSBLUFF    PTCLDY    23  13  65 NW6       30.01R WCI  16
6HR MIN TEMP:  21; 6HR MAX TEMP:  37;

ALLIANCE       PTCLDY    20  12  71 W9        29.97S WCI   9
6HR MIN TEMP:  19; 6HR MAX TEMP:  37;

CHADRON        CLOUDY    27  17  66 SW10      29.98S WCI  17
6HR MIN TEMP:  25; 6HR MAX TEMP:  34;

KIMBALL        CLEAR     26  16  64 W13       30.01S WCI  15
SIDNEY         PTCLDY    25  15  66 W12       30.01S WCI  14
6HR MIN TEMP:  24; 6HR MAX TEMP:  33;

$$

NEZ057>060-069>072-079>082-040700-
SOUTHWEST NEBRASKA

CITY           SKY/WX    TMP DP  RH WIND       PRES   REMARKS
NORTH PLATTE   MOCLDY    28  26  92 S3        30.00S
6HR MIN TEMP:  27; 6HR MAX TEMP:  37;

IMPERIAL       CLOUDY    28  15  58 W9        30.02S WCI  19
6HR MIN TEMP:  27; 6HR MAX TEMP:  39;

LEXINGTON      CLOUDY    33  32  94 W7        30.00F WCI  27
MCCOOK         CLEAR     30  28  92 W12       30.02S WCI  20
6HR MIN TEMP:  29; 6HR MAX TEMP:  35;

OGALLALA       CLOUDY    31  18  60 W5        30.01S WCI  26
$$

NEZ005>010-023>029-035>040-094-040700-
NORTH CENTRAL NEBRASKA

CITY           SKY/WX    TMP DP  RH WIND       PRES   REMARKS
VALENTINE      CLOUDY    27  20  75 SW9       29.93F WCI  18
6HR MIN TEMP:  23; 6HR MAX TEMP:  31;

AINSWORTH      CLEAR     26  19  74 SW6       29.94F WCI  19
BROKEN BOW     MOCLDY    32  30  92 SW6       29.98S WCI  26
6HR MIN TEMP:  32; 6HR MAX TEMP:  35;

O`NEILL        PTCLDY    34  32  92 SW9       29.96S WCI  27
ORD            CLOUDY    33  29  85 SW10      29.98F WCI  25
6HR MIN TEMP:  33; 6HR MAX TEMP:  35;

THEDFORD       PTCLDY    25  18  75 CALM      29.97S
$$

NEZ041-046>049-061>064-073>077-083>087-040700-
SOUTH CENTRAL NEBRASKA

CITY           SKY/WX    TMP DP  RH WIND       PRES   REMARKS
GRAND ISLAND   CLOUDY    32  32 100 SW10      30.03F WCI  24
6HR MIN TEMP:  32; 6HR MAX TEMP:  32;

AURORA         CLOUDY    32  32 100 W8        30.03S WCI  25
HASTINGS       CLOUDY    32  31  96 SW8       30.04F WCI  25
6HR MIN TEMP:  32; 6HR MAX TEMP:  32; 6HR PCP: TRACE;

HEBRON         CLOUDY    32  32  99 CALM      30.06S
HOLDREGE       FOG       32  31  96 SW8       30.02S VSB 3/4 WCI  24
KEARNEY *      CLOUDY    32  28  86 SW8       30.02F WCI  25
YORK           CLOUDY    32  32 100 CALM      30.04F
$$

NEZ011>018-030>034-042>045-040700-
NORTHEAST NEBRASKA

CITY           SKY/WX    TMP DP  RH WIND       PRES   REMARKS
NORFOLK        CLOUDY    32  30  92 S10       30.00F WCI  24
6HR MIN TEMP:  32; 6HR MAX TEMP:  33;

ALBION         CLOUDY    32  32  99 S8        30.00F FOG     WCI  25
BLAIR          MIX PCPN  33  33  99 S5        30.03F WCI  29
FREMONT        CLOUDY    32  32 100 CALM      30.04F FOG
TEKAMAH        CLOUDY    33  31  92 SE7       30.05F FOG     WCI  27
6HR MIN TEMP:  32; 6HR MAX TEMP:  33; 6HR PCP:  0.13;

WAYNE          CLOUDY    33  33  98 S12G18    30.01F WCI  24
$$

NEZ050>053-065>068-078-088>093-040700-
SOUTHEAST NEBRASKA

CITY           SKY/WX    TMP DP  RH WIND       PRES   REMARKS
LINCOLN        FOG       32  32 100 CALM      30.06S VSB 1
6HR MIN TEMP:  32; 6HR MAX TEMP:  33; 6HR PCP:  0.20;

OMAHA EPPLEY   LGT RAIN  33  29  85 SE5       30.05F VSB 1   WCI  29
6HR MIN TEMP:  33; 6HR MAX TEMP:  34; 6HR PCP:  0.25;

BEATRICE       LGT RAIN  34  34  99 SW5       30.06S WCI  30
FALLS CITY     LGT RAIN  40  38  93 S8        30.07S WCI  34
6HR MIN TEMP:  38; 6HR MAX TEMP:  40; 6HR PCP:  0.13;

NEBRASKA CITY  LGT RAIN  37  37 100 SW6       30.06F WCI  32
PLATTSMOUTH    LGT RAIN  35  33  92 S9        30.05F WCI  27
$$

NEZ044-045-051>053-067-040700-
OMAHA AREA

CITY           SKY/WX    TMP DP  RH WIND       PRES   REMARKS
OMAHA EPPLEY   LGT RAIN  33  29  85 SE5       30.05F VSB 1   WCI  29
6HR MIN TEMP:  33; 6HR MAX TEMP:  34; 6HR PCP:  0.25;

BLAIR          MIX PCPN  33  33  99 S5        30.03F WCI  29
FREMONT        CLOUDY    32  32 100 CALM      30.04F FOG
MILLARD        LGT RAIN  33  32  96 CALM      30.05F
OFFUTT AFB     LGT RAIN  32  32 100 CALM      30.04F FOG
PLATTSMOUTH    LGT RAIN  35  33  92 S9        30.05F WCI  27
WAHOO          FOG       32  32  99 SE5       30.04F VSB 1   WCI  28
$$




USA.gov is the U.S. government's official web portal to all federal, state and local government web resources and services.